Location: Aressy
(43.2833°N, 0.3167°W)
Time: 20:35:34
(UTC+00:00)

CSL-04 Debris - Pass Details

Date: 28 January 2021
Orbit: 827 x 847 km, 98.9° (Epoch: 02 March)

Event Time Altitude Azimuth Distance (km) Brightness Sun altitude
Rises 18:54:26 0° 160° (SSE) 3,355 7.2 -19.4°
Reaches altitude 10° 18:56:46 10° 159° (SSE) 2,425 6.4 -19.8°
Maximum altitude 19:02:08 78° 74° (ENE) 851 4.0 -20.8°
Drops below altitude 10° 19:07:32 10° 349° (NNW) 2,442 6.7 -21.8°
Sets 19:09:53 0° 348° (NNW) 3,380 7.4 -22.2°
